Wind_Speed
16 10 11 11 11 9 6 3 5 9 9 11 15 19 24 25 27 32 39 38 31 27 23 22 29 31 30 30 29 34 33 34 36 37 36 29 24 25 22 23 20 16 11
20 18 16 16 14 12 8 6 2 4 10 13 13 13 14 15 18 23 28 37 43 35 36 30 28 30 33 36 37 34 34 35 34 29 21 19 20 16 13 9 8 5 4
23 22 20 18 14 12 13 11 7 3 1 3 7 8 10 12 14 20 26 33 34 43 31 27 32 33 27 28 25 21 22 21 21 17 10 12 9 8 6 6 4 5 7
28 26 26 21 17 15 16 16 14 14 14 11 9 6 2 4 5 9 12 18 24 28 29 24 18 17 18 17 14 14 15 10 6 5 4 1 2 3 4 4 4 3 5
32 30 26 23 20 20 20 22 20 17 15 14 12 11 10 10 6 2 3 6 11 12 15 18 17 14 13 9 8 5 3 1 1 1 4 3 2 2 3 4 4 3 5
32 32 30 28 23 23 25 22 18 16 14 14 15 17 18 17 14 4 5 9 8 8 13 16 16 12 9 8 8 7 8 8 8 6 6 3 2 1 2 4 3 3 6
34 34 32 30 22 19 21 24 25 21 17 15 21 19 21 21 21 16 12 12 11 10 10 12 13 12 12 10 9 9 12 9 6 6 6 4 2 3 2 1 1 2 5
33 33 34 33 27 22 22 22 24 25 21 20 20 20 22 21 20 18 14 12 10 9 10 13 13 12 12 13 10 7 6 5 5 7 6 5 3 2 3 2 1 3 6
32 33 34 36 34 28 25 20 18 17 18 16 17 16 18 18 18 22 21 16 8 9 8 11 13 14 13 14 7 6 6 8 11 11 10 8 3 5 4 3 5 7 10
31 30 32 35 34 34 27 25 22 19 13 12 10 13 16 20 21 20 18 14 10 4 6 8 10 10 10 10 10 4 4 4 6 9 8 8 9 7 9 10 10 10 12
31 31 31 31 32 32 33 31 28 27 21 15 11 13 15 15 15 14 17 15 14 4 8 10 12 12 8 9 7 7 5 8 14 15 15 11 8 10 14 13 14 15 15
34 33 33 31 31 33 36 35 35 32 33 22 14 16 14 14 15 15 14 15 17 7 14 15 13 11 11 11 10 12 16 19 17 13 11 8 12 17 17 16 18 17 13
32 31 34 31 32 33 35 39 38 38 38 36 21 18 15 14 14 14 14 17 18 14 16 15 15 16 16 14 19 20 18 17 14 13 15 15 17 18 18 17 17 15 12
28 29 31 31 31 32 34 39 41 40 40 41 37 25 21 21 19 17 18 22 20 21 23 21 19 19 19 21 19 17 18 18 16 15 17 17 17 18 16 15 14 16 18
27 27 30 31 31 30 32 37 41 44 42 43 40 37 28 24 22 20 24 26 24 22 23 20 21 22 22 23 21 21 20 16 13 12 14 16 17 16 16 18 21 21 17
31 28 27 29 32 32 32 37 39 43 43 43 43 42 38 34 28 25 25 28 28 25 22 22 22 23 24 24 25 22 20 24 27 26 23 21 20 22 26 22 21 18 15
28 31 28 27 29 31 34 34 37 41 42 43 42 42 41 39 39 36 30 28 29 23 21 21 22 23 23 21 22 23 28 33 38 39 39 38 34 27 23 22 19 18 18
26 28 31 30 31 28 33 35 34 37 40 43 42 41 42 42 39 41 39 32 27 25 21 22 22 19 18 19 24 25 28 33 36 37 35 33 29 25 23 21 18 17 17
23 25 27 29 32 32 31 33 36 33 34 40 41 41 40 41 40 41 40 40 32 25 25 21 20 16 18 22 24 26 27 29 31 30 29 29 25 22 20 19 18 18 17
21 22 24 27 29 32 33 32 34 35 34 34 39 41 40 39 40 40 41 40 40 33 22 24 20 18 20 20 24 26 25 26 26 25 23 23 21 20 18 17 17 16 16
18 18 21 24 27 29 31 32 31 31 32 32 34 38 40 40 39 40 40 41 40 39 31 18 20 19 19 23 24 25 24 23 22 19 18 18 16 15 15 16 16 15 16
12 14 18 22 26 26 28 30 31 31 32 32 33 33 36 39 40 40 40 39 39 40 39 32 16 18 19 22 23 23 23 19 18 16 15 13 13 13 12 14 15 14 15
6 9 12 17 22 24 24 25 26 28 29 29 31 31 30 35 36 38 39 38 37 38 38 37 33 17 17 17 16 16 17 17 19 15 14 12 11 11 13 14 14 13 16
6 4 5 10 16 22 21 22 18 22 22 24 26 28 31 31 31 31 36 37 35 35 35 36 36 33 19 14 14 14 15 18 19 16 13 13 14 16 13 14 12 14 18
6 7 3 3 7 16 18 22 18 19 21 21 25 27 27 28 28 28 31 34 33 32 31 33 33 33 34 27 14 12 14 17 17 17 16 14 10 11 15 13 12 15 20
12 10 11 6 5 7 16 18 21 16 16 19 22 24 24 26 27 29 29 27 33 30 28 28 30 31 30 30 31 28 19 16 16 13 11 11 17 17 14 15 13 17 20
Wind_Direction
64 57 43 25 20 14 7 330 260 242 241 244 251 250 247 247 246 240 243 256 257 256 255 247 240 239 243 259 274 276 279 283 284 287 293 290 292 297 294 295 304 304 300
45 40 40 35 17 23 49 80 113 216 233 241 245 247 249 251 252 250 247 243 242 248 253 251 248 244 256 265 273 274 272 276 283 281 283 292 298 299 303 310 320 313 326
48 45 42 34 36 66 60 39 29 42 43 211 213 215 235 248 252 250 248 243 242 240 241 240 242 243 249 248 257 261 270 267 275 290 291 294 296 303 342 352 336 334 315
44 43 45 45 57 68 52 55 59 75 77 85 97 105 54 328 297 271 254 239 238 239 243 246 253 255 258 253 253 260 268 275 295 294 299 357 54 341 330 330 345 352 332
45 48 47 47 65 63 66 62 66 80 74 71 62 66 51 46 39 335 238 218 216 220 223 231 237 232 235 223 226 202 185 161 184 167 112 94 129 97 24 58 41 33 8
47 50 52 52 68 69 67 58 64 69 73 66 66 71 70 67 61 107 136 125 140 166 183 191 199 190 186 182 165 136 116 128 116 109 125 161 148 312 317 335 350 339 1
49 50 55 60 65 63 64 61 60 63 67 83 86 69 63 67 64 80 107 131 131 137 151 166 176 174 168 164 154 134 125 125 128 160 190 181 325 336 39 42 185 19 39
52 52 54 56 60 61 64 61 63 67 75 78 78 74 75 68 68 74 96 120 108 109 128 144 155 158 149 135 121 111 107 132 170 184 198 222 299 132 108 119 91 70 63
50 54 53 52 58 62 60 57 57 59 73 73 76 74 69 72 72 78 76 79 105 102 113 127 132 132 140 109 111 129 154 190 211 217 220 238 188 107 134 111 83 84 92
47 52 46 50 57 55 58 57 56 57 67 71 70 69 78 84 81 75 67 58 57 106 146 154 146 134 136 140 150 148 164 167 167 168 153 138 118 132 86 89 85 88 106
49 46 43 49 55 55 56 59 57 55 52 53 63 88 85 85 79 64 64 46 29 126 151 139 141 143 147 150 140 142 132 131 124 112 111 119 122 95 93 84 89 101 108
51 49 48 51 54 53 56 58 56 55 52 56 69 89 84 85 69 73 54 40 29 109 136 135 135 132 129 128 131 124 114 112 112 117 123 120 112 102 98 86 90 91 87
46 48 49 50 51 55 52 53 53 54 53 51 70 86 92 95 74 68 55 35 43 88 122 125 121 120 117 121 124 126 119 118 115 113 113 113 111 102 94 84 78 77 76
40 44 50 49 51 50 49 50 50 54 55 53 61 79 85 86 86 68 52 45 57 99 110 115 114 109 119 123 125 125 114 109 109 110 112 112 112 102 91 79 78 86 89
43 43 49 50 49 50 48 49 51 51 52 55 60 68 73 75 76 71 58 49 64 106 110 111 108 109 111 118 122 111 102 98 103 118 127 123 117 105 87 89 97 86 81
49 46 48 52 49 45 51 51 50 50 51 53 58 62 66 66 66 63 62 61 63 90 98 108 106 112 120 116 106 101 97 98 95 97 109 123 114 98 98 97 89 81 74
50 50 49 53 56 49 49 51 52 51 49 54 55 60 60 63 62 62 60 68 70 90 98 105 110 117 112 104 98 105 110 103 96 94 97 101 105 106 101 93 88 80 65
56 51 50 51 58 53 51 52 52 53 49 51 54 55 57 57 61 60 59 63 74 78 92 106 111 113 108 104 107 115 112 106 101 98 98 100 103 101 95 82 76 70 53
52 55 54 52 55 56 52 50 48 52 48 48 51 54 55 56 57 60 61 61 66 82 87 97 102 111 111 107 119 122 115 105 100 102 104 101 100 98 92 80 81 67 68
46 55 56 57 52 54 57 53 50 48 51 49 49 51 52 53 54 56 57 59 60 64 78 88 104 114 115 118 129 123 115 111 105 104 101 102 103 102 91 73 76 74 72
44 46 54 58 55 51 54 55 54 53 50 53 54 54 54 53 52 53 55 55 56 58 64 84 93 107 121 128 133 124 119 113 109 109 103 105 104 97 86 74 70 81 74
48 38 51 53 58 50 46 53 55 57 59 55 58 56 57 57 56 53 52 55 55 55 56 61 90 101 110 126 132 127 126 120 113 111 109 108 106 96 78 78 80 80 77
17 42 36 49 52 51 46 46 53 57 55 53 54 58 58 57 57 56 53 55 56 56 56 58 60 91 112 117 118 125 131 127 120 116 117 106 95 94 91 85 93 88 79
316 2 25 37 49 48 45 38 53 55 62 61 60 57 57 53 54 56 57 52 54 56 57 57 58 61 82 114 116 125 133 130 125 125 112 100 95 98 94 100 95 88 90
246 306 282 13 11 37 39 45 45 59 62 62 60 57 57 57 55 54 54 54 55 55 60 63 62 60 66 74 86 102 114 121 120 112 108 108 102 108 108 98 92 92 106
258 278 284 290 324 21 40 44 42 49 61 59 58 64 60 61 58 56 55 57 53 51 54 62 67 69 65 65 68 72 88 111 114 107 108 100 95 93 96 97 95 99 111
Height
10936 10933 10930 10928 10926 10924 10923 10922 10921 10921 10920 10921 10922 10923 10926 10927 10928 10929 10929 10928 10931 10933 10935 10937 10940 10943 10946 10947 10949 10950 10951 10951 10951 10950 10950 10949 10949 10949 10949 10948 10946 10946 10945
10938 10933 10930 10928 10926 10923 10921 10920 10920 10919 10919 10919 10919 10920 10922 10923 10923 10922 10923 10924 10926 10927 10930 10933 10936 10940 10941 10944 10945 10945 10946 10947 10946 10946 10947 10946 10947 10946 10946 10945 10945 10944 10943
10939 10935 10930 10927 10927 10925 10923 10921 10920 10920 10919 10918 10918 10920 10920 10919 10918 10917 10917 10917 10919 10922 10925 10927 10931 10935 10937 10938 10940 10940 10942 10942 10943 10942 10943 10945 10945 10944 10943 10944 10944 10943 10943
10941 10937 10933 10930 10928 10926 10924 10922 10919 10919 10918 10919 10920 10920 10919 10918 10916 10915 10913 10913 10914 10917 10920 10924 10927 10930 10931 10933 10935 10937 10938 10939 10939 10940 10942 10942 10942 10943 10943 10944 10944 10943 10943
10945 10941 10937 10933 10931 10929 10927 10925 10923 10922 10922 10922 10921 10921 10919 10917 10916 10911 10912 10912 10914 10916 10919 10922 10925 10926 10928 10930 10933 10935 10936 10937 10938 10940 10941 10942 10943 10943 10943 10943 10943 10943 10942
10949 10945 10941 10938 10936 10933 10932 10930 10928 10926 10925 10923 10923 10921 10919 10919 10916 10914 10912 10913 10915 10916 10917 10919 10922 10925 10927 10930 10932 10933 10934 10936 10938 10940 10941 10942 10943 10942 10943 10942 10943 10942 10941
10953 10949 10946 10941 10940 10938 10937 10935 10932 10930 10928 10927 10925 10923 10921 10919 10917 10916 10915 10916 10917 10917 10918 10919 10921 10924 10927 10929 10932 10933 10935 10937 10939 10941 10942 10942 10942 10942 10942 10942 10942 10941 10940
10959 10954 10951 10947 10944 10942 10941 10939 10937 10935 10933 10932 10929 10926 10924 10922 10919 10918 10917 10918 10919 10920 10920 10921 10923 10925 10927 10929 10931 10933 10935 10937 10938 10940 10941 10941 10941 10941 10941 10941 10941 10941 10940
10964 10960 10957 10953 10949 10947 10945 10942 10940 10938 10936 10934 10931 10928 10926 10925 10922 10921 10920 10920 10920 10921 10921 10922 10924 10926 10928 10929 10932 10934 10935 10937 10937 10938 10939 10940 10940 10940 10940 10939 10940 10940 10941
10970 10966 10962 10958 10954 10951 10948 10946 10943 10940 10939 10936 10932 10930 10929 10928 10926 10924 10922 10922 10920 10921 10921 10923 10924 10926 10927 10929 10932 10934 10935 10935 10936 10937 10937 10938 10939 10940 10939 10940 10940 10942 10943
10974 10971 10968 10965 10961 10958 10954 10950 10946 10943 10939 10935 10933 10931 10930 10929 10928 10927 10923 10922 10920 10919 10920 10922 10924 10925 10928 10930 10932 10934 10935 10935 10935 10937 10938 10939 10940 10940 10941 10942 10943 10943 10944
10979 10975 10973 10971 10966 10963 10960 10955 10950 10946 10942 10936 10933 10932 10931 10931 10931 10929 10926 10924 10920 10917 10919 10921 10923 10925 10928 10930 10932 10934 10935 10936 10937 10939 10939 10940 10941 10942 10943 10945 10946 10946 10947
10984 10981 10978 10976 10972 10968 10965 10960 10954 10950 10944 10939 10935 10933 10932 10932 10932 10931 10929 10925 10919 10917 10919 10922 10923 10925 10927 10930 10932 10934 10935 10937 10939 10940 10940 10942 10943 10945 10946 10948 10948 10949 10950
10990 10987 10983 10980 10977 10974 10971 10965 10960 10954 10949 10944 10939 10936 10936 10935 10935 10933 10931 10926 10921 10919 10922 10924 10926 10927 10930 10932 10934 10936 10937 10938 10939 10941 10942 10943 10946 10948 10950 10951 10952 10953 10952
10994 10992 10988 10984 10981 10979 10975 10971 10965 10959 10955 10950 10945 10941 10940 10939 10937 10935 10933 10929 10925 10923 10925 10928 10930 10931 10932 10934 10937 10938 10939 10940 10939 10940 10942 10945 10949 10951 10953 10954 10956 10956 10956
10997 10996 10993 10990 10986 10983 10981 10977 10971 10965 10961 10957 10952 10948 10945 10943 10941 10939 10936 10933 10930 10929 10931 10932 10933 10935 10936 10939 10939 10941 10942 10943 10941 10941 10943 10947 10952 10955 10957 10958 10959 10959 10958
11002 10999 10997 10995 10992 10989 10986 10982 10977 10972 10969 10964 10960 10956 10953 10950 10947 10943 10940 10939 10937 10936 10937 10938 10940 10941 10942 10943 10944 10946 10947 10946 10946 10947 10949 10952 10956 10958 10960 10961 10962 10962 10960
11007 11004 11001 10999 10995 10993 10990 10986 10982 10978 10975 10971 10967 10963 10960 10956 10953 10949 10946 10943 10942 10943 10942 10943 10944 10946 10947 10948 10949 10952 10953 10951 10951 10952 10955 10957 10960 10962 10963 10964 10964 10964 10962
11009 11008 11006 11003 11000 10997 10993 10990 10988 10984 10981 10978 10974 10971 10968 10965 10961 10957 10953 10950 10947 10947 10947 10947 10948 10950 10951 10952 10954 10957 10958 10958 10956 10957 10959 10961 10963 10965 10966 10966 10966 10965 10964
11013 11011 11010 11008 11004 11001 10998 10995 10992 10990 10987 10985 10982 10978 10976 10972 10969 10965 10961 10958 10954 10951 10950 10951 10952 10954 10955 10957 10959 10960 10962 10962 10962 10963 10964 10964 10966 10967 10967 10968 10968 10967 10965
11016 11015 11013 11012 11009 11006 11003 11000 10998 10997 10994 10992 10989 10986 10982 10978 10976 10973 10968 10965 10962 10959 10956 10955 10956 10956 10957 10959 10962 10963 10965 10966 10966 10967 10968 10968 10969 10969 10970 10970 10970 10969 10967
11018 11017 11015 11015 11012 11010 11008 11005 11003 11002 11000 10999 10996 10994 10990 10986 10983 10980 10977 10973 10970 10967 10964 10962 10960 10960 10962 10963 10964 10965 10967 10969 10970 10971 10972 10972 10972 10973 10973 10973 10972 10972 10969
11019 11019 11018 11017 11016 11014 11012 11010 11008 11006 11005 11004 11001 10999 10997 10993 10989 10987 10984 10981 10978 10975 10972 10971 10967 10965 10965 10966 10967 10968 10969 10971 10972 10973 10974 10974 10975 10975 10976 10976 10975 10974 10972
11019 11019 11019 11020 11018 11017 11016 11015 11013 11011 11010 11009 11006 11005 11002 10999 10995 10993 10991 10988 10984 10981 10979 10976 10974 10972 10968 10969 10970 10972 10973 10973 10974 10975 10976 10977 10978 10978 10978 10978 10977 10977 10976
11019 11019 11019 11020 11020 11019 11018 11017 11016 11016 11015 11012 11010 11008 11006 11003 11002 10999 10997 10995 10992 10988 10986 10983 10981 10979 10976 10974 10974 10974 10975 10976 10977 10977 10978 10979 10980 10980 10980 10981 10980 10981 10980
11017 11018 11019 11019 11021 11022 11020 11019 11019 11020 11019 11017 11014 11012 11011 11009 11007 11004 11002 11000 10999 10997 10993 10989 10988 10985 10983 10981 10979 10978 10978 10978 10979 10981 10981 10981 10982 10983 10984 10985 10984 10984 10983